Miscellaneous Local Product
Issued by NWS Hastings, NE

Home | Current Version | Previous Version | Graphics & Text | Print | Product List | Glossary On
Versions: 1 2 3 4 5 6 7 8 9 10 11 12 13 14 15 16 17 18 19 20 21 22 23 24 25 26 27 28 29 30 31 32 33 34 35 36 37 38 39 40 41 42 43 44 45 46 47 48 49 50
000
AXUS43 KGID 251202
MISGRI

GID CWA HOURLY WEATHER ROUNDUP
NATIONAL WEATHER SERVICE HASTINGS NE
700 AM CDT WED MAR 25 2015

NOTE: "FAIR" INDICATES FEW OR NO CLOUDS BELOW 12,000 FEET WITH NO
SIGNIFICANT WEATHER AND/OR OBSTRUCTIONS TO VISIBILITY.

...SOUTH CENTRAL NEBRASKA...

CITY           SKY/WX    TMP DP  RH WIND       PRES   REMARKS
GRAND ISLAND   CLOUDY    38  37  97 N9        29.99R FOG     WCI  31
HASTINGS       CLOUDY    39  37  92 N8        29.95R WCI  33
KEARNEY        CLOUDY    43  36  75 N13       29.97R
ORD            CLOUDY    38  32  79 N14       29.99R WCI  30
YORK           FOG       37  37 100 NW6       29.97R VSB 1/4 WCI  33
AURORA         CLOUDY    38  38 100 NW6       29.96R FOG     WCI  34
LEXINGTON      CLOUDY    49  31  48 N8        29.95R
HOLDREGE       CLOUDY    44  33  64 W7        29.93R
HEBRON         CLOUDY    37  36  95 CALM      29.97R

...NEBRASKA PANHANDLE...

CITY           SKY/WX    TMP DP  RH WIND       PRES   REMARKS
CHADRON        CLOUDY    31  25  78 E8        30.10R WCI  23
ALLIANCE       CLOUDY    38  25  59 NE14      30.04R WCI  30
SCOTTSBLUFF    LGT RAIN  37  32  82 NE12      30.06R WCI  29
SIDNEY         CLOUDY    40  30  67 N8        30.01R WCI  34

...WESTERN AND NORTH CENTRAL NEBRASKA...

CITY           SKY/WX    TMP DP  RH WIND       PRES   REMARKS
VALENTINE      CLOUDY    32  26  78 NW13G22   30.05R WCI  22
AINSWORTH      CLOUDY    33  28  79 NW13G21   30.03R WCI  24
ONEILL         CLOUDY    35  31  85 NW15G22   30.00R WCI  25
BROKEN BOW     CLOUDY    41  31  67 N17       29.98R
IMPERIAL         N/A     44  35  70 W6        29.98R
NORTH PLATTE   CLOUDY    43  31  62 N18       29.98R
MCCOOK         MOCLDY    45  32  60 W8        29.97R

...EASTERN NEBRASKA...

CITY           SKY/WX    TMP DP  RH WIND       PRES   REMARKS
NORFOLK        CLOUDY    38  33  82 NW13      29.99R WCI  30
SO SIOUX CITY  CLOUDY    39  33  79 N16G23    29.97R WCI  30
TEKAMAH        CLOUDY    39  37  92 W21G30    29.98R WCI  29
COLUMBUS       CLOUDY    37  32  81 W8        30.01R WCI  31
ALBION         CLOUDY    39  33  78 N14       29.99R WCI  30
OMAHA EPPLEY   CLOUDY    37  36  96 N10       29.97R FOG     WCI  30
MILLARD        CLOUDY    37  36  96 CALM      29.94S FOG
LINCOLN        CLOUDY    38  37  97 W3        29.99R FOG
NEBRASKA CITY  FOG       37  37 100 SW6       29.96R VSB 1/2 WCI  32
BEATRICE       CLOUDY    37  37 100 W5        29.98R FOG     WCI  34
FALLS CITY     CLOUDY    38  37  97 SW5       29.98R WCI  34

...NORTHERN KANSAS...

CITY           SKY/WX    TMP DP  RH WIND       PRES   REMARKS
GOODLAND       PTCLDY    35  30  82 CALM      29.98R
HILL CITY      MOCLDY    43  25  49 W7        29.96R
NORTON         CLOUDY    48  30  49 W8        29.96R
PHILLIPSBURG   CLOUDY    45  39  81 W7        29.96R
SMITH CENTER   CLOUDY    37  36  93 CALM      29.96R FOG
BELOIT         CLEAR     34  34 100 CALM      29.96S
HAYS           PTCLDY    36  21  55 N9        29.94F WCI  29
RUSSELL        PTCLDY    45  37  73 NW6       29.92F
CONCORDIA      MOCLDY    35  35 100 CALM      29.96S FOG
SALINA         FOG       38  36  92 NW10      29.98R VSB 1   WCI  31
TOPEKA         FOG       42  41  96 CALM      29.97R VSB 1/2



USA.gov is the U.S. government's official web portal to all federal, state and local government web resources and services.